When you browse on this site, cookies collect data to enhance your experience and personalize the content and advertising you see.
Visit our Privacy Policy to learn more. By continuing to use the site, you agree to this use of cookies and data.
  • în România
  • Lista ţărilor
  • Pe 7 zile
  • Temperatura apei
  • Hartă satelitară
  • Meteo pe hartă
  • Widget-uri
  • user-avatar
    Intrare

    Meteo pe oră la Sharlotte

    Astăzi, 10 Decembrie, Luni

    Timp Temperatura Precipitaţii Vânt Presiune Umiditate
    00:00 -2°C° 0.1 mm 4 m/s 742 mmHg 96%
    01:00 -2°C° 0.1 mm 4 m/s 742 mmHg 97%
    02:00 0°C° 0.5 mm 3 m/s 742 mmHg 97%
    03:00 0°C° 0.5 mm 3 m/s 742 mmHg 98%
    04:00 0°C° 0.5 mm 3 m/s 742 mmHg 99%
    05:00 0°C° 0.8 mm 3 m/s 742 mmHg 99%
    06:00 0°C° 0.8 mm 3 m/s 742 mmHg 99%
    07:00 0°C° 0.8 mm 3 m/s 743 mmHg 99%
    08:00 0°C° 0.5 mm 3 m/s 743 mmHg 99%
    09:00 -1°C° 0.5 mm 4 m/s 743 mmHg 99%
    10:00 -1°C° 0.5 mm 4 m/s 744 mmHg 98%
    11:00 0°C° 0.2 mm 3 m/s 744 mmHg 98%
    12:00 0°C° 0.2 mm 3 m/s 744 mmHg 98%
    13:00 0°C° 0.2 mm 3 m/s 744 mmHg 97%
    14:00 +1°C° 0.2 mm 2 m/s 744 mmHg 97%
    15:00 -1°C° 0.2 mm 2 m/s 744 mmHg 97%
    16:00 -1°C° 0.2 mm 2 m/s 744 mmHg 97%
    17:00 +1°C° 0.3 mm 1 m/s 745 mmHg 97%
    18:00 +1°C° 0.3 mm 1 m/s 745 mmHg 97%
    19:00 +1°C° 0.3 mm 1 m/s 746 mmHg 96%
    20:00 +1°C° 0.1 mm 1 m/s 746 mmHg 96%
    21:00 +2°C° 0.1 mm 1 m/s 746 mmHg 96%
    22:00 +2°C° 0.1 mm 1 m/s 746 mmHg 96%
    23:00 +1°C° 0 mm 1 m/s 746 mmHg 95%

    Mâine, 11 Decembrie, Marţi

    Timp Temperatura Precipitaţii Vânt Presiune Umiditate
    00:00 +1°C° 0 mm 1 m/s 746 mmHg 95%
    01:00 -1°C° 0 mm 2 m/s 746 mmHg 94%
    02:00 +1°C° 0 mm 1 m/s 747 mmHg 94%
    03:00 0°C° 0 mm 1 m/s 747 mmHg 94%
    04:00 0°C° 0 mm 1 m/s 747 mmHg 93%
    05:00 -1°C° 0 mm 1 m/s 747 mmHg 94%
    06:00 -1°C° 0 mm 1 m/s 748 mmHg 94%
    07:00 -1°C° 0 mm 1 m/s 748 mmHg 94%
    08:00 0°C° 0 mm 1 m/s 748 mmHg 95%
    09:00 +1°C° 0 mm 1 m/s 749 mmHg 96%
    10:00 +2°C° 0 mm 1 m/s 749 mmHg 97%
    11:00 +2°C° 0 mm 1 m/s 749 mmHg 98%
    12:00 +2°C° 0 mm 1 m/s 748 mmHg 98%
    13:00 +2°C° 0 mm 1 m/s 748 mmHg 98%
    14:00 +2°C° 0 mm 1 m/s 747 mmHg 99%
    15:00 +2°C° 0 mm 1 m/s 747 mmHg 99%
    16:00 +2°C° 0 mm 1 m/s 747 mmHg 99%
    17:00 +1°C° 0 mm 1 m/s 747 mmHg 98%
    18:00 -2°C° 0 mm 2 m/s 748 mmHg 98%
    19:00 -3°C° 0 mm 2 m/s 748 mmHg 97%
    20:00 -3°C° 0 mm 2 m/s 748 mmHg 97%
    21:00 -1°C° 0 mm 1 m/s 748 mmHg 96%
    22:00 -2°C° 0 mm 1 m/s 748 mmHg 95%
    23:00 -2°C° 0 mm 1 m/s 748 mmHg 93%

    Poimâine, 12 Decembrie, Miercuri

    Timp Temperatura Precipitaţii Vânt Presiune Umiditate
    00:00 -2°C° 0 mm 1 m/s 748 mmHg 92%
    01:00 -3°C° 0 mm 1 m/s 748 mmHg 90%
    02:00 -3°C° 0 mm 1 m/s 748 mmHg 89%
    03:00 -3°C° 0 mm 1 m/s 748 mmHg 88%
    04:00 -3°C° 0 mm 1 m/s 748 mmHg 86%
    05:00 -3°C° 0 mm 1 m/s 749 mmHg 85%
    06:00 -3°C° 0 mm 1 m/s 749 mmHg 84%
    07:00 -4°C° 0 mm 1 m/s 749 mmHg 83%
    08:00 -2°C° 0 mm 1 m/s 750 mmHg 84%
    09:00 0°C° 0 mm 1 m/s 750 mmHg 85%
    10:00 +1°C° 0 mm 1 m/s 751 mmHg 86%
    11:00 +2°C° 0 mm 1 m/s 750 mmHg 88%
    12:00 +3°C° 0 mm 1 m/s 750 mmHg 90%
    13:00 +3°C° 0 mm 0 m/s 750 mmHg 92%
    14:00 +3°C° 0 mm 1 m/s 750 mmHg 93%
    15:00 +3°C° 0 mm 1 m/s 750 mmHg 95%
    16:00 +3°C° 0 mm 1 m/s 750 mmHg 96%
    17:00 +2°C° 0 mm 1 m/s 750 mmHg 97%
    18:00 +1°C° 0 mm 1 m/s 750 mmHg 97%
    19:00 -1°C° 0 mm 2 m/s 751 mmHg 97%
    20:00 -1°C° 0 mm 2 m/s 751 mmHg 97%
    21:00 -2°C° 0 mm 2 m/s 752 mmHg 96%
    22:00 -2°C° 0 mm 2 m/s 752 mmHg 96%
    23:00 -2°C° 0 mm 2 m/s 752 mmHg 96%

    13 Decembrie, Joi

    Timp Temperatura Precipitaţii Vânt Presiune Umiditate
    00:00 -2°C° 0 mm 2 m/s 752 mmHg 96%
    01:00 -2°C° 0 mm 2 m/s 752 mmHg 97%
    02:00 -2°C° 0 mm 2 m/s 752 mmHg 97%
    03:00 -2°C° 0 mm 2 m/s 752 mmHg 96%
    04:00 -2°C° 0 mm 2 m/s 752 mmHg 96%
    05:00 -2°C° 0 mm 2 m/s 752 mmHg 96%
    06:00 -2°C° 0 mm 2 m/s 752 mmHg 96%
    07:00 -2°C° 0 mm 2 m/s 752 mmHg 96%
    08:00 -2°C° 0 mm 2 m/s 753 mmHg 96%
    09:00 -1°C° 0 mm 2 m/s 753 mmHg 96%
    10:00 +1°C° 0 mm 2 m/s 753 mmHg 96%
    11:00 +2°C° 0 mm 2 m/s 752 mmHg 96%
    12:00 +2°C° 0 mm 2 m/s 752 mmHg 96%
    13:00 +3°C° 0 mm 2 m/s 751 mmHg 96%
    14:00 +3°C° 0 mm 2 m/s 750 mmHg 96%
    15:00 +3°C° 0 mm 2 m/s 750 mmHg 97%
    16:00 +3°C° 0 mm 2 m/s 750 mmHg 97%
    17:00 +3°C° 0.1 mm 2 m/s 750 mmHg 98%
    18:00 +3°C° 0.1 mm 2 m/s 750 mmHg 98%
    19:00 +3°C° 0.1 mm 2 m/s 750 mmHg 98%
    20:00 +3°C° 0.1 mm 2 m/s 750 mmHg 99%
    21:00 +3°C° 0.1 mm 2 m/s 749 mmHg 99%
    22:00 +3°C° 0.1 mm 2 m/s 749 mmHg 99%
    23:00 +3°C° 0.4 mm 3 m/s 748 mmHg 99%

    14 Decembrie, Vineri

    Timp Temperatura Precipitaţii Vânt Presiune Umiditate
    00:00 +4°C° 0.4 mm 3 m/s 747 mmHg 99%
    01:00 +4°C° 0.4 mm 3 m/s 746 mmHg 99%
    02:00 +5°C° 3.2 mm 3 m/s 746 mmHg 99%
    03:00 +6°C° 3.2 mm 4 m/s 745 mmHg 98%
    04:00 +7°C° 3.2 mm 4 m/s 744 mmHg 98%
    05:00 +8°C° 2.6 mm 4 m/s 744 mmHg 98%
    06:00 +10°C° 2.6 mm 4 m/s 743 mmHg 98%
    07:00 +11°C° 2.6 mm 4 m/s 743 mmHg 98%
    08:00 +10°C° 1.5 mm 5 m/s 743 mmHg 98%
    09:00 +12°C° 1.5 mm 5 m/s 742 mmHg 97%
    10:00 +12°C° 1.5 mm 5 m/s 742 mmHg 97%
    11:00 +13°C° 1.6 mm 5 m/s 741 mmHg 97%
    12:00 +13°C° 1.6 mm 5 m/s 739 mmHg 97%
    13:00 +14°C° 1.6 mm 5 m/s 738 mmHg 97%
    14:00 +14°C° 1.2 mm 5 m/s 737 mmHg 97%
    15:00 +15°C° 1.2 mm 6 m/s 737 mmHg 97%
    16:00 +15°C° 1.2 mm 6 m/s 736 mmHg 96%
    17:00 +14°C° 3.2 mm 5 m/s 736 mmHg 93%
    18:00 +12°C° 3.2 mm 4 m/s 736 mmHg 90%
    19:00 +10°C° 3.2 mm 3 m/s 736 mmHg 87%
    20:00 +9°C° 1.1 mm 2 m/s 736 mmHg 89%
    21:00 +9°C° 1.1 mm 1 m/s 736 mmHg 91%
    22:00 +7°C° 1.1 mm 0 m/s 736 mmHg 92%
    23:00 +7°C° 0 mm 0 m/s 736 mmHg 93%

    15 Decembrie, Sâmbătă

    Timp Temperatura Precipitaţii Vânt Presiune Umiditate
    00:00 +6°C° 0 mm 0 m/s 735 mmHg 94%
    01:00 +6°C° 0 mm 0 m/s 735 mmHg 95%
    02:00 +7°C° 0 mm 1 m/s 735 mmHg 96%
    03:00 +7°C° 0 mm 1 m/s 736 mmHg 96%
    04:00 +6°C° 0 mm 1 m/s 736 mmHg 97%
    05:00 +7°C° 0 mm 1 m/s 736 mmHg 97%
    06:00 +7°C° 0 mm 1 m/s 736 mmHg 97%
    07:00 +7°C° 0 mm 1 m/s 736 mmHg 97%
    08:00 +7°C° 0 mm 1 m/s 736 mmHg 96%
    09:00 +7°C° 0 mm 2 m/s 736 mmHg 94%
    10:00 +8°C° 0 mm 2 m/s 736 mmHg 92%
    11:00 +8°C° 0.1 mm 3 m/s 736 mmHg 90%
    12:00 +8°C° 0.1 mm 3 m/s 735 mmHg 88%
    13:00 +9°C° 0.1 mm 3 m/s 735 mmHg 87%
    14:00 +9°C° 0.2 mm 3 m/s 735 mmHg 88%
    15:00 +8°C° 0.2 mm 3 m/s 735 mmHg 89%
    16:00 +8°C° 0.2 mm 3 m/s 735 mmHg 90%
    17:00 +8°C° 0 mm 3 m/s 735 mmHg 91%
    18:00 +8°C° 0 mm 3 m/s 736 mmHg 92%
    19:00 +7°C° 0 mm 3 m/s 736 mmHg 94%
    20:00 +7°C° 0 mm 3 m/s 737 mmHg 92%
    21:00 +7°C° 0 mm 3 m/s 737 mmHg 91%
    22:00 +8°C° 0 mm 3 m/s 737 mmHg 90%
    23:00 +7°C° 0 mm 3 m/s 737 mmHg 90%
    Arată mai mult